Location: *
(48.7052°S, 177.6085°W)
Time: 05:49:43
(UTC+00:00)

Daily predictions for brighter satellites

Satellite Brightness Start Highest point End
(mag) Time Altitude Azimuth Time Altitude Azimuth Time Altitude Azimuth
Cosmos 1825 3.6 04:52:58 10° NE 04:55:41 19° E 04:58:26 10° SE
ADEOS 3.6 04:51:00 10° SSE 04:56:19 68° ENE 05:01:34 10° N
Cosmos 1486 Rocket 4.0 04:51:01 10° SSW 04:56:20 70° ESE 05:01:37 10° NNE
Cosmos 1441 Rocket 3.9 04:53:50 10° NNW 04:57:36 58° WSW 05:01:23 10° S
Cosmos 1437 Rocket 4.5 04:56:58 10° SSE 04:58:52 13° ESE 05:00:46 10° E
SKYMED 2 3.7 04:55:44 10° NNE 05:00:08 90° WNW 05:04:36 10° SSW
Cosmos 2322 4.0 04:55:06 10° N 05:00:36 51° ENE 05:06:12 10° SE
Lacrosse 5 2.7 04:57:20 10° SW 05:02:06 36° SSE 05:06:51 10° E
Cosmos 1461 4.4 05:01:13 10° SSW 05:04:20 19° SSE 05:07:32 10° E
CZ-4B R/B 3.7 05:01:15 10° SSE 05:05:00 89° ESE 05:08:47 10° NNW
Cosmos 1992 Rocket 4.4 05:00:55 10° N 05:05:55 45° ENE 05:10:57 10° SSE
CENTAUR R/B 3.0 04:58:44 10° NW 05:06:47 83° SW 05:13:33 10° SE
USA 234 3.8 05:00:29 10° ESE 05:06:50 46° NE 05:13:07 10° NNW
Cosmos 1408 3.1 05:03:30 10° NNE 05:07:01 40° E 05:10:36 10° SSE
Cosmos 1869 3.3 05:03:34 10° S 05:07:43 67° ESE 05:11:44 10° NNE
In-Cosmos 22 Rocket 4.2 05:06:36 10° N 05:11:51 59° E 05:17:09 10° SSE
SJ 16-02 3.2 05:10:12 10° SSE 05:12:14 13° SE 05:13:52 11° ESE
Cosmos 1606 4.2 05:09:52 10° SSE 05:12:23 16° ESE 05:14:52 10° ENE
Cosmos 2333 Rocket 2.3 05:08:57 10° NNW 05:14:31 61° ENE 05:20:10 10° SE
Cosmos 1302 Rocket 4.3 05:09:19 10° NNW 05:14:32 72° WSW 05:19:49 10° SSE
Envisat 3.1 05:09:37 10° SSE 05:14:43 57° E 05:19:45 10° N
USA 276 2.9 05:12:44 10° W 05:15:54 51° NNW 05:19:02 10° NE
SL-16 R/B 3.6 05:13:06 10° WNW 05:18:18 35° SW 05:23:32 10° SSE
CZ-4B R/B 3.2 05:15:20 10° SSE 05:19:51 60° E 05:24:10 10° N
Meteor 2-2 Rocket 4.4 05:13:55 10° S 05:19:51 55° ESE 05:25:36 10° NNE
SMAP 4.1 05:19:07 10° SE 05:23:01 25° E 05:26:51 10° NNE
ATLAS CENTAUR R/B 3.3 05:27:36 10° SSW 05:30:24 16° SSE 05:32:02 13° SE
Cosmos 2237 Rocket 3.3 05:27:22 10° NNE 05:31:52 25° ENE 05:35:19 14° ESE
Cosmos 1092 Rocket 4.1 05:25:59 10° NNE 05:32:00 53° E 05:38:09 10° SSE
Cosmos 1356 4.3 05:29:00 10° NNE 05:32:00 28° E 05:34:32 13° SE
H-2A R/B 2.9 05:28:14 10° S 05:32:11 77° WSW 05:36:02 10° NNW
Nadezhda 4 Rocket 4.0 05:26:02 10° N 05:32:12 84° E 05:38:30 10° S
YAOGAN 6 2.6 05:32:52 10° SSE 05:36:28 85° WSW 05:40:01 10° NNW
Cosmos 2333 4.3 05:31:35 10° NNW 05:37:14 79° WSW 05:42:57 10° SSE
ATLAS 3B R/B 3.4 05:31:06 10° N 05:37:59 40° ENE 05:43:45 14° SE
Cosmos 1953 Rocket 3.7 05:33:34 10° N 05:38:04 83° W 05:42:40 10° S
Cosmos 1825 Rocket 4.4 05:34:27 10° NNW 05:38:50 55° WSW 05:43:14 10° S
Meteor PRIRODA 3.7 05:35:29 10° SSE 05:39:20 87° W 05:43:06 10° NNW
Meteor 1-31 Rocket 4.3 05:38:24 10° S 05:42:01 36° WSW 05:45:34 10° NW
Meteor 2-8 Rocket 4.5 05:35:52 10° S 05:42:10 88° E 05:48:22 10° N
Cosmos 2026 Rocket 4.2 05:37:02 10° NNE 05:43:13 52° E 05:49:26 10° SSE
CZ-4B R/B 2.3 05:40:48 10° N 05:43:47 48° W 05:46:52 10° SSW
CZ-2C R/B 4.0 05:42:53 17° ESE 05:44:58 23° E 05:48:43 10° NE
H-2A R/B 4.4 05:48:48 12° NE 05:48:48 12° NE 05:49:12 10° NE
Cosmos 2322 Rocket 3.9 05:41:47 10° WNW 05:46:40 29° SW 05:51:34 10° SSE
Cosmos 1777 Rocket 4.2 05:42:09 10° SSW 05:47:20 48° ESE 05:52:27 10° NE
Cosmos 1503 Rocket 4.2 05:42:57 10° SSW 05:48:17 77° WNW 05:53:30 10° NNE
Cosmos 1939 Rocket 3.8 05:48:51 21° ESE 05:50:30 28° E 05:54:06 10° NNE
NOAA 12 4.3 05:45:50 10° SSE 05:51:06 51° E 05:56:17 10° N
Cosmos 1943 Rocket 3.5 05:47:12 10° S 05:51:28 21° SE 05:52:42 20° ESE
Cosmos 1892 3.7 05:48:05 10° NNW 05:51:54 49° WSW 05:55:44 10° S
Cosmos 2278 Rocket 2.2 05:46:39 10° SSW 05:52:25 70° ESE 05:58:06 10° NE
NOSS 3-2 (C) 4.5 05:45:50 10° WNW 05:54:08 60° SW 06:01:03 12° SE
Cosmos 1842 Rocket 3.5 05:50:46 10° S 05:55:17 81° E 05:59:46 10° NNE
Cosmos 2098 Rocket 2.1 05:52:06 10° N 05:55:26 90° NNE 05:58:28 10° S
ERS-2 2.3 05:52:07 10° NE 05:55:40 47° ESE 05:59:17 10° S
Cosmos 2369 Rocket 3.8 05:55:01 10° S 05:58:21 16° SSE 05:58:51 15° SE
Cosmos 2058 2.8 05:55:15 10° N 05:59:24 82° E 06:03:39 10° SSE
CZ-4B R/B 3.8 05:55:17 11° SSE 05:59:57 33° E 06:04:44 10° NNE
COSMOS 2428 2.7 05:54:21 10° NNW 06:00:05 87° WSW 06:05:53 10° SSE
Cosmos 1900 4.4 05:56:09 10° SSW 06:01:13 60° SE 06:05:05 17° NE
S3M 4.4 06:02:36 10° S 06:08:38 42° ESE 06:14:40 10° NE
Cosmos 2360 Rocket 3.8 06:05:00 10° WNW 06:09:59 31° SW 06:15:02 10° SSE
Cosmos 1633 4.2 06:06:51 10° NNE 06:08:10 19° NE 06:08:10 19° NE
Cosmos 2219 Rocket 2.6 06:05:00 10° NW 06:10:35 63° WSW 06:16:13 10° SSE
Cosmos 1689 Rocket 2.1 06:08:01 10° N 06:10:54 77° W 06:13:51 10° SSW
NOAA 11 4.1 06:06:30 10° SSE 06:12:02 74° ENE 06:17:32 10° N
BREEZE-M DEB (TANK) 4.2 06:01:43 10° NW 06:12:21 56° NNE 06:14:24 32° E
DMSP B5D2-2 4.1 06:09:17 10° NNE 06:14:35 86° WNW 06:19:58 10° SSW
SAR-Lupe-4 3.5 06:11:20 10° NNE 06:14:59 89° WNW 06:18:40 10° SSW
Cosmos 2221 3.0 06:11:25 10° SSW 06:15:44 62° W 06:19:58 10° N
MOS 1-B 4.3 06:15:37 10° SSE 06:21:30 68° ENE 06:27:18 10° N
Cosmos 1553 Rocket 3.8 06:19:03 10° S 06:25:17 74° E 06:31:22 10° NNE
Cosmos 967 Rocket 4.4 06:19:09 10° SW 06:25:39 83° SE 06:30:41 17° NE
CZ-2C R/B 3.9 06:21:34 10° N 06:26:58 44° W 06:32:22 10° SSW
FengYun 1-2 T 4.1 06:21:37 10° SSE 06:27:16 75° ENE 06:32:48 10° N
MOS 1-B Rocket 3.8 06:24:23 10° NNE 06:30:01 75° ESE 06:36:10 10° SSW
Cosmos 1825 3.7 06:27:20 10° NW 06:30:53 37° WSW 06:34:31 10° S
Cosmos 405 Rocket 3.2 06:27:34 10° NNW 06:31:18 59° WSW 06:34:21 15° S
Cosmos 1242 Rocket 4.3 06:27:37 10° S 06:29:08 22° S 06:29:08 22° S
Radarsat Rocket 3.9 06:26:10 10° SSE 06:32:32 75° ENE 06:38:24 10° NNW
Cosmos 1980 3.6 06:27:10 10° NNW 06:32:49 73° ENE 06:35:39 31° SE
Cosmos 1437 Rocket 3.1 06:31:44 10° SSW 06:35:34 61° W 06:39:18 10° N
CZ-4B DEB 4.4 06:34:07 10° SSE 06:39:40 73° WSW 06:45:09 10° NNW
Cosmos 1417 Rocket 4.4 06:33:17 10° S 06:39:47 80° E 06:46:10 10° NNE
Cosmos 1076 Rocket 3.7 06:36:12 10° NNW 06:40:30 73° W 06:44:02 16° S
Cosmos 1461 2.8 06:39:39 10° SW 06:43:58 87° SE 06:44:11 80° NE
Okean O Rocket 1.5 06:44:08 72° ENE 06:44:08 72° ENE 06:48:38 10° N
SL-16 R/B 3.7 06:39:15 10° NNE 06:41:18 20° NNE 06:41:18 20° NNE
Lacrosse 5 1.8 06:40:29 10° SW 06:45:40 80° SE 06:46:23 66° ENE
Cosmos 1809 Rocket 4.3 06:40:06 10° N 06:46:20 76° E 06:52:35 10° SSE
Cosmos 1867 3.7 06:41:30 10° SSW 06:46:45 51° SE 06:46:45 51° SE
Cosmos 1606 3.7 06:44:38 10° SSW 06:48:23 46° W 06:52:03 10° NNW
USA 234 3.4 06:47:05 35° SE 06:50:04 72° SSW 06:56:39 10° WNW
SJ 16-02 1.5 06:47:08 10° SSW 06:50:53 61° S 06:50:53 61° S
Cosmos 2297 3.8 06:47:06 10° SSW 06:52:50 57° ESE 06:52:51 57° ESE
Cosmos 1607 3.9 06:47:14 10° SW 06:53:18 57° SE 06:53:48 55° ESE
Cosmos 1655 Rocket 3.9 06:47:32 10° N 06:53:47 65° E 07:00:11 10° SSE
Cosmos 2151 3.9 06:53:15 10° N 06:55:58 39° NNW 06:55:58 39° NNW
CENTAUR R/B 4.0 06:51:46 10° W 06:58:17 32° SSW 07:01:45 20° SSE
Cosmos 2333 Rocket 3.9 06:54:18 10° WNW 06:59:12 29° SW 07:03:45 12° SSE
SMAP 4.1 06:56:02 10° S 07:00:33 45° WSW 07:05:02 10° NW
Meteor 1-26 Rocket 4.3 07:03:30 10° SSW 07:09:41 87° E 07:11:24 50° NNE
ATLAS CENTAUR R/B 3.0 07:05:57 10° SSW 07:08:12 28° SSW 07:08:12 28° SSW
NOSS 0 Rocket 4.5 07:06:17 10° NW 07:12:25 57° SW 07:15:39 28° SSE
Cosmos 2237 Rocket 2.6 07:09:49 10° NW 07:15:28 63° WSW 07:17:11 43° S
ATLAS CENTAUR R/B 4.0 06:57:59 10° WNW 07:16:32 77° SW 07:19:33 45° SE
Meteor 2-21 Rocket 4.4 07:17:08 10° N 07:23:24 88° W 07:29:45 10° S
CZ-2C R/B 3.7 07:23:57 40° SSW 07:25:11 49° WSW 07:29:47 10° NW
ATLAS 3B R/B 3.2 07:21:06 10° WNW 07:28:32 62° SW 07:31:01 42° SSE
Cosmos 883 Rocket 4.4 07:24:47 10° S 07:30:52 81° WSW 07:30:52 81° WSW
Cosmos 2278 Rocket 4.5 07:31:42 10° SW 07:35:55 22° W 07:40:07 10° NNW
Cosmos 1943 Rocket 2.9 07:30:20 10° SSW 07:34:15 46° SSW 07:34:15 46° SSW
Meteor 2-3 Rocket 4.2 07:31:20 10° NNW 07:35:54 55° NW 07:35:54 55° NW
CZ-4B R/B 4.3 07:37:13 19° S 07:40:36 41° WSW 07:45:34 10° NW
Cosmos 2369 Rocket 3.7 07:38:03 10° SSW 07:40:38 27° SSW 07:40:38 27° SSW
Lacrosse 5 4.4 08:24:01 10° WSW 08:25:36 17° W 08:25:36 17° W
USA 234 4.4 08:34:26 37° SW 08:34:26 37° SW 08:38:49 10° WSW
